, CA

(GMT )
Vandenberg AFB

Weather History for KVBG - October, 2012

Change the Weather History Date:

Friday, October 5, 2012

  Actual Average Record
Temperature  
Mean Temperature 60 °F -  
Max Temperature 71 °F - - ()
Min Temperature 48 °F - - ()
Degree Days  
Heating Degree Days 6    
Growing Degree Days 10 (Base 50)    
Moisture  
Dew Point 55 °F    
Average Humidity 86    
Maximum Humidity 100    
Minimum Humidity 59    
Precipitation  
Precipitation 0.00 in - - ()
Sea Level Pressure  
Sea Level Pressure 30.07 in    
Wind  
Wind Speed 8 mph (NW)    
Max Wind Speed 17 mph    
Max Gust Speed -    
Visibility 8 miles    
Events Fog    
T = Trace of Precipitation, MM = Missing Value Source: NWS Daily Summary

Daily Weather History Graph

Daily Weather History Graph

Search for Another Location

Airport or City:

Trip Planner

Search our weather history database for the weather conditions in past years. The results will help you decide how hot, cold, wet, or windy it might be!

Date:

Astronomy

Oct. 05, 2012 Rise Set
Actual Time 7:00 AM PDT 6:40 PM PDT
Civil Twilight 6:35 AM PDT 7:05 PM PDT
Nautical Twilight 6:06 AM PDT 7:34 PM PDT
Astronomical Twilight 5:36 AM PDT 8:03 PM PDT
Moon 10:19 PM PDT (10/5) 12:01 PM PDT (10/5)
Length of Visible Light 12h 29m
Length of Day
11h 39m
Waning Gibbous, 73% of the Moon is Illuminated
Oct 5
Waning Gibbous
Oct 8
Last Quarter
Oct 15
New
Oct 21
First Quarter
Oct 29
Full

Hourly Weather History & Observations

Time (PDT) Temp. Dew Point Humidity Pressure Visibility Wind Dir Wind Speed Gust Speed Precip Events Conditions
12:55 AM 57.0 °F 55.0 °F 93% 30.12 in 10.0 mi NNW 6.9 mph - N/A   Overcast
1:55 AM 57.9 °F 55.0 °F 90% 30.11 in 10.0 mi NNW 9.2 mph - N/A   Overcast
2:55 AM 55.9 °F 55.0 °F 97% 30.10 in 8.0 mi NNW 4.6 mph - N/A   Overcast
3:19 AM 55.4 °F 53.6 °F 94% 30.11 in 8.0 mi NNE 4.6 mph - N/A   Scattered Clouds
3:55 AM 54.0 °F 53.1 °F 97% 30.09 in 6.0 mi North 3.5 mph - N/A   Partly Cloudy
4:20 AM 53.6 °F 53.6 °F 100% 30.11 in 9.0 mi North 3.5 mph - N/A   Mostly Cloudy
4:55 AM 55.9 °F 54.0 °F 93% 30.08 in 6.0 mi Calm Calm - N/A   Overcast
5:55 AM 54.0 °F 53.1 °F 97% 30.08 in 8.0 mi Calm Calm - N/A   Mostly Cloudy
6:02 AM 53.6 °F 51.8 °F 94% 30.10 in 8.0 mi Calm Calm - N/A   Scattered Clouds
6:33 AM 51.8 °F 50.0 °F 94% 30.10 in 2.5 mi East 3.5 mph - N/A   Clear
6:42 AM 51.8 °F 50.0 °F 94% 30.10 in 8.0 mi Calm Calm - N/A   Clear
6:53 AM 48.2 °F 48.2 °F 100% 30.10 in 5.0 mi SSE 3.5 mph - N/A   Partly Cloudy
6:55 AM 48.9 °F 48.9 °F 100% 30.08 in 5.0 mi Calm Calm - N/A Fog Shallow Fog
7:55 AM 55.9 °F 55.0 °F 97% 30.09 in 3.0 mi NNW 12.7 mph - N/A   Mostly Cloudy
8:12 AM 57.2 °F 55.4 °F 94% 30.12 in 2.0 mi WNW 13.8 mph - N/A   Mostly Cloudy
8:55 AM 59.0 °F 57.0 °F 93% 30.11 in 2.0 mi NW 13.8 mph - N/A   Overcast
9:25 AM 60.8 °F 57.2 °F 88% 30.13 in 9.0 mi NW 13.8 mph - N/A   Mostly Cloudy
9:55 AM 63.0 °F 57.9 °F 84% 30.11 in 10.0 mi NW 17.3 mph - N/A   Mostly Cloudy
10:18 AM 64.4 °F 57.2 °F 77% 30.12 in 10.0 mi NW 15.0 mph - N/A   Mostly Cloudy
10:55 AM 64.0 °F 57.0 °F 78% 30.10 in 10.0 mi NW 13.8 mph - N/A   Mostly Cloudy
11:55 AM 64.9 °F 55.9 °F 73% 30.09 in 10.0 mi WNW 17.3 mph - N/A   Mostly Cloudy
12:55 PM 69.1 °F 57.0 °F 65% 30.06 in 10.0 mi NW 11.5 mph - N/A   Mostly Cloudy
1:55 PM 70.0 °F 57.0 °F 63% 30.04 in 10.0 mi WNW 11.5 mph - N/A   Mostly Cloudy
2:55 PM 71.1 °F 55.9 °F 59% 30.03 in 10.0 mi NW 15.0 mph - N/A   Mostly Cloudy
3:55 PM 66.9 °F 57.0 °F 70% 30.02 in 10.0 mi NW 15.0 mph - N/A   Mostly Cloudy
4:55 PM 68.0 °F 55.9 °F 65% 30.01 in 10.0 mi NW 12.7 mph - N/A   Mostly Cloudy
5:55 PM 64.0 °F 55.9 °F 75% 30.01 in 10.0 mi NW 15.0 mph - N/A   Clear
6:55 PM 62.1 °F 55.9 °F 80% 30.01 in 10.0 mi NW 15.0 mph - N/A   Clear
7:55 PM 61.0 °F 55.9 °F 83% 30.02 in 10.0 mi NW 12.7 mph - N/A   Clear
8:55 PM 60.1 °F 55.9 °F 86% 30.02 in 10.0 mi WNW 10.4 mph - N/A   Clear
9:55 PM 60.1 °F 55.9 °F 86% 30.01 in 10.0 mi NW 6.9 mph - N/A   Clear
10:55 PM 59.0 °F 55.0 °F 87% 30.02 in 10.0 mi WNW 6.9 mph - N/A   Clear
11:55 PM 57.9 °F 55.0 °F 90% 30.01 in 10.0 mi WNW 6.9 mph - N/A   Clear